[[{"header":{"parameterUnit":"m.s-1","parameterCategory":2,"la1":30.2991,"la2":30.254,"lo1":-89.0895,"lo2":-89.0444,"dy":0.0017,"dx":0.0017,"nx":28,"ny":28,"refTime":"2024-05-24T09:00:00:Z","depth":"0","parameterNumber":2,"parameterNumberName":"U-component_of_CURRENTS"},"data":[0,0,0,0,0,0,0,0,0,0,0,0,0,0,0,0,0,0,0,0,0,0,0,0,0,0,0,0,0,0,0,0,0,0,0,0,0,0,0,0,0,0,0,0,0,0,0,0,0,0,0,0,0,0,0,0,0,0,0.2669,0.2669,0,0.2668,0.2667,0.2667,0.2647,0.2646,0.2646,0.2645,0.2629,0.2629,0.2629,0,0,0,0,0,0,0,0,0,0,0,0,0,0.2672,0.2672,0.2669,0.2669,0.2669,0.2668,0.2667,0.2667,0.2647,0.2646,0.2646,0.2645,0.2629,0.2629,0.2629,0,0,0,0,0,0,0,0,0,0,0,0,0,0.2669,0.2672,0.2669,0.2659,0.2659,0.2668,0.2667,0.2667,0.2647,0.2646,0.2645,0.2645,0.2629,0.2629,0.2629,0.264,0,0,0.2628,0.2628,0,0,0,0,0,0,0,0,0.2669,0.2669,0.2661,0.266,0.2659,0.2658,0.2663,0.2658,0.2647,0.265,0.2645,0.2645,0.2638,0.2638,0.2637,0.264,0.2639,0.2628,0.2628,0.2628,0.2628,0,0,0,0,0,0,0,0.267,0.2669,0.2667,0.2661,0.266,0.2662,0.2661,0.2662,0.2646,0.2649,0.2648,0.2651,0.2638,0.2637,0.2636,0.2639,0.2628,0.2628,0.2628,0.2628,0.2686,0.2688,0,0,0,0,0,0,0.2672,0.2669,0.2667,0.2667,0.2665,0.2663,0.2661,0.2658,0.2646,0.2645,0.2651,0.265,0.2638,0.2636,0.2636,0.2676,0.2628,0.2628,0.2628,0.2685,0.2687,0.2688,0,0,0,0,0,0,0.2672,0.2672,0.2667,0.2669,0.2669,0.2663,0.266,0.2658,0.2662,0.2648,0.2646,0.2658,0.2637,0.2636,0.2648,0.2674,0.2628,0.2628,0.2683,0.2685,0.2688,0.2739,0,0,0,0,0,0,0.2672,0.2672,0.2673,0.2669,0.2669,0.2677,0.266,0.2658,0.2665,0.2663,0.2653,0.2651,0.2636,0.2648,0.2648,0.2673,0.2628,0.2681,0.2684,0.2687,0.2736,0.2743,0.275,0,0,0,0,0,0.2672,0.2672,0.2673,0.2673,0.267,0.2678,0.2678,0.2671,0.2666,0.2672,0.267,0.2651,0.2667,0.2649,0.2649,0.2674,0.2679,0.2683,0.2687,0.2732,0.2742,0.275,0,0,0,0,0,0,0.267,0.267,0.2671,0.2669,0.2678,0.2675,0.2678,0.2679,0.2682,0.2679,0.2666,0.2664,0.2688,0.2677,0.2658,0.2702,0.2673,0.2676,0.2708,0.2717,0.2724,0.272,0.2628,0,0,0,0,0,0.2673,0.2673,0.2678,0.2679,0.2683,0.2685,0.2689,0.2687,0.2689,0.2689,0.2683,0.2686,0.2703,0.2705,0.271,0.273,0.2733,0.2749,0.2756,0.2762,0.2761,0.2811,0.2822,0.27,0.27,0.27,0,0,0.2671,0.2673,0.2671,0.2679,0.2682,0.2695,0.2685,0.2693,0.2708,0.2688,0.2702,0.2709,0.2715,0.274,0.275,0.2732,0.2798,0.2767,0.2772,0.2767,0.2816,0.2828,0.2838,0.2703,0.2702,0.2702,0,0,0.267,0.2671,0.2673,0.2685,0.2698,0.2703,0.2711,0.2715,0.2721,0.2743,0.2739,0.2764,0.2773,0.2787,0.2798,0.2849,0.2836,0.2852,0.2881,0.293,0.294,0.2949,0.2961,0.2971,0.2853,0.2853,0.2853,0,0.267,0.2672,0.2677,0.2689,0.2702,0.2711,0.2725,0.2738,0.2747,0.2765,0.2753,0.2803,0.2801,0.2851,0.2865,0.2865,0.2876,0.2846,0.2939,0.2948,0.2956,0.2966,0.2976,0.2856,0.2856,0.2855,0.2855,0,0.2675,0.2681,0.2685,0.2704,0.2722,0.2734,0.2758,0.2776,0.279,0.2807,0.2857,0.2866,0.2896,0.2906,0.2897,0.2961,0.2944,0.2944,0.2915,0.2972,0.2978,0.2988,0.286,0.2859,0.2858,0.2858,0,0,0.2654,0.2683,0.2681,0.2691,0.2731,0.2738,0.2783,0.2822,0.2851,0.2878,0.2922,0.296,0.297,0.2983,0.2986,0.3019,0.3081,0.3003,0.3004,0.3009,0.3168,0.3103,0.3107,0.3102,0.3104,0.3106,0.3145,0,0.2654,0.2673,0.2694,0.2714,0.2727,0.2764,0.2801,0.2843,0.2883,0.2925,0.2968,0.3006,0.3001,0.3016,0.3058,0.3078,0.311,0.3069,0.3116,0.3117,0.3049,0.3118,0.2963,0.2981,0.3155,0.3156,0.3157,0,0.2644,0.2661,0.268,0.2717,0.2726,0.2745,0.2809,0.2844,0.2924,0.2955,0.3021,0.3053,0.3115,0.3096,0.3179,0.3154,0.3164,0.3174,0.3176,0.3103,0.3071,0.2955,0.2991,0.2941,0.3172,0.317,0.3169,0,0.261,0.2642,0.2654,0.2668,0.2719,0.274,0.2773,0.2852,0.29,0.2976,0.3027,0.3102,0.3148,0.3192,0.3229,0.3209,0.3307,0.3285,0.3235,0.3229,0.3098,0.3077,0.3084,0.3342,0.3342,0.3342,0.3342,0,0.2591,0.2594,0.2634,0.2638,0.2662,0.271,0.2756,0.2802,0.2896,0.2955,0.3036,0.3102,0.3179,0.325,0.3258,0.3283,0.3342,0.3249,0.3248,0.311,0.3091,0.3039,0.3014,0.3344,0.3343,0.3343,0.3343,0,0.2541,0.2567,0.258,0.2628,0.2642,0.2657,0.2742,0.2782,0.2874,0.296,0.2991,0.3127,0.3206,0.3273,0.3339,0.332,0.324,0.333,0.3145,0.312,0.2994,0.2976,0.2824,0.275,0.3269,0.3268,0.3267,0,0.2515,0.2517,0.2559,0.2568,0.2585,0.2623,0.2655,0.2751,0.2804,0.2969,0.3004,0.3132,0.3194,0.3281,0.3267,0.3274,0.3198,0.3124,0.3057,0.2976,0.2956,0.2821,0.2761,0.29,0.2896,0.2893,0.289,0,0.2473,0.2487,0.25,0.2523,0.2544,0.2576,0.263,0.2671,0.2786,0.2861,0.2966,0.3036,0.3137,0.309,0.3115,0.3093,0.2954,0.3057,0.3032,0.2718,0.2511,0.2441,0.2871,0.2862,0.2864,0.2867,0.2868,0.2869,0.2438,0.2438,0.2458,0.2464,0.2488,0.2504,0.2497,0.2566,0.2622,0.2695,0.2838,0.2874,0.2919,0.2931,0.2901,0.2766,0.2765,0.2661,0.2661,0.2543,0.2419,0.2771,0.2727,0.2729,0.2731,0.2732,0.2734,0,0.2383,0.2388,0.24,0.2394,0.2375,0.2421,0.2453,0.2425,0.2421,0.253,0.2586,0.2615,0.2561,0.2582,0.2497,0.2394,0.2266,0.2329,0.2121,0.2097,0.2469,0.2404,0.2215,0.2215,0.2215,0.2215,0.2215,0.2215,0.2358,0.2336,0.2332,0.2269,0.2262,0.22,0.2189,0.2166,0.2203,0.2194,0.2205,0.2269,0.2365,0.232,0.2194,0.2131,0.1985,0.1841,0.1901,0.2198,0.2229,0.2259,0.2194,0.1963,0.1963,0.1401,0.1397,0.1394]},{"header":{"parameterUnit":"m.s-1","parameterCategory":2,"la1":30.2991,"la2":30.254,"lo1":-89.0895,"lo2":-89.0444,"dy":0.0017,"dx":0.0017,"nx":28,"ny":28,"refTime":"2024-05-24T09:00:00:Z","depth":"0","parameterNumber":3,"parameterNumberName":"V-component_of_CURRENTS"},"data":[0,0,0,0,0,0,0,0,0,0,0,0,0,0,0,0,0,0,0,0,0,0,0,0,0,0,0,0,0,0,0,0,0,0,0,0,0,0,0,0,0,0,0,0,0,0,0,0,0,0,0,0,0,0,0,0,0,0,0.0374,0.0374,0,0.0357,0.0357,0.0357,0.034,0.034,0.0339,0.0339,0.0302,0.0301,0.03,0,0,0,0,0,0,0,0,0,0,0,0,0,0.0359,0.036,0.0374,0.0374,0.0374,0.0357,0.0357,0.0357,0.034,0.034,0.0339,0.0339,0.0302,0.0301,0.03,0,0,0,0,0,0,0,0,0,0,0,0,0,0.0356,0.036,0.0375,0.0364,0.0363,0.0357,0.0357,0.0357,0.034,0.034,0.0339,0.0339,0.0303,0.0301,0.03,0.0299,0,0,0.0297,0.0296,0,0,0,0,0,0,0,0,0.0356,0.0356,0.0366,0.0365,0.0363,0.0351,0.0338,0.0336,0.034,0.0348,0.0339,0.0339,0.0317,0.0314,0.0312,0.0297,0.0295,0.0296,0.0296,0.0295,0.0295,0,0,0,0,0,0,0,0.0356,0.0357,0.0367,0.0365,0.0364,0.0348,0.0348,0.0337,0.0334,0.0348,0.0346,0.0345,0.0316,0.0313,0.0311,0.0295,0.0296,0.0295,0.0295,0.0294,0.0282,0.0282,0,0,0,0,0,0,0.0361,0.0357,0.0368,0.0367,0.0359,0.0349,0.0348,0.0355,0.0334,0.0331,0.0345,0.0344,0.0315,0.0312,0.0309,0.0322,0.0295,0.0294,0.0293,0.0282,0.0282,0.0282,0,0,0,0,0,0,0.0361,0.0363,0.0369,0.0361,0.0361,0.035,0.0357,0.0355,0.0354,0.0333,0.0329,0.0347,0.0315,0.0311,0.0305,0.032,0.0293,0.0292,0.0281,0.0282,0.0282,0.0337,0,0,0,0,0,0,0.0361,0.0363,0.0369,0.0362,0.0362,0.0374,0.0357,0.0354,0.0353,0.0352,0.0333,0.0329,0.0314,0.0307,0.0304,0.0317,0.0291,0.0281,0.0281,0.0282,0.0335,0.0339,0.0343,0,0,0,0,0,0.0361,0.0373,0.037,0.0371,0.0371,0.0374,0.0373,0.0363,0.0354,0.036,0.0345,0.033,0.031,0.0307,0.0303,0.0316,0.028,0.0281,0.0282,0.0333,0.0338,0.0343,0,0,0,0,0,0,0.0368,0.0372,0.0368,0.0381,0.0381,0.0372,0.0375,0.0367,0.036,0.0357,0.0335,0.0331,0.0329,0.0314,0.0312,0.0314,0.0292,0.0293,0.0332,0.0337,0.0342,0.0358,0.029,0,0,0,0,0,0.0373,0.0384,0.0383,0.0392,0.0394,0.0385,0.0384,0.0379,0.0372,0.0368,0.0354,0.0339,0.033,0.0327,0.0314,0.0318,0.0296,0.0323,0.0328,0.0332,0.0341,0.0324,0.0328,0.0285,0.0285,0.0285,0,0,0.0377,0.0381,0.0386,0.0395,0.0393,0.0406,0.0384,0.0389,0.0402,0.0365,0.0374,0.0351,0.0332,0.0336,0.0334,0.0327,0.0329,0.0333,0.0336,0.0344,0.0326,0.033,0.0333,0.0286,0.0286,0.0286,0,0,0.0395,0.0397,0.0414,0.0419,0.0423,0.0421,0.0425,0.042,0.042,0.0425,0.04,0.0388,0.0376,0.0367,0.0361,0.0382,0.0349,0.0375,0.0416,0.0399,0.0403,0.0406,0.0372,0.0372,0.0382,0.0382,0.0382,0,0.0399,0.0426,0.0419,0.0438,0.0449,0.0432,0.0456,0.0455,0.0448,0.0453,0.0436,0.0417,0.0395,0.0404,0.0408,0.0393,0.0371,0.0399,0.0406,0.0408,0.041,0.0375,0.0374,0.0385,0.0384,0.0384,0.0384,0,0.0434,0.0455,0.0466,0.0489,0.0497,0.0515,0.0516,0.0523,0.0517,0.0512,0.0515,0.0483,0.0475,0.0463,0.0442,0.0449,0.0423,0.041,0.0395,0.0418,0.0379,0.0377,0.0389,0.0388,0.0387,0.0386,0,0,0.045,0.0486,0.0492,0.0517,0.053,0.0545,0.0567,0.0587,0.0609,0.0589,0.0615,0.0584,0.0561,0.0552,0.052,0.0503,0.0487,0.0467,0.0465,0.0438,0.0437,0.0434,0.0431,0.0475,0.0475,0.0475,0.04,0,0.0484,0.0537,0.0544,0.0595,0.0625,0.0623,0.0651,0.0662,0.0662,0.0678,0.0646,0.0652,0.0598,0.0597,0.057,0.0514,0.0486,0.0508,0.0415,0.0412,0.0411,0.043,0.0472,0.041,0.0398,0.0397,0.0397,0,0.0522,0.0556,0.0615,0.0666,0.068,0.0703,0.0748,0.0772,0.0782,0.0783,0.0772,0.0743,0.0719,0.067,0.0584,0.0601,0.0524,0.047,0.0466,0.0446,0.0406,0.0387,0.0406,0.0336,0.0393,0.0394,0.0394,0,0.0551,0.0608,0.0661,0.0677,0.0728,0.0754,0.0781,0.0802,0.0842,0.0849,0.0874,0.0825,0.082,0.0725,0.0613,0.0598,0.0513,0.0478,0.0397,0.0394,0.0404,0.0403,0.0353,0.0411,0.0411,0.0411,0.0412,0,0.0591,0.0633,0.068,0.071,0.0783,0.0797,0.0868,0.0885,0.0924,0.0987,0.0932,0.0967,0.0835,0.0773,0.0646,0.0525,0.0536,0.041,0.0383,0.0422,0.0424,0.0342,0.03,0.0409,0.0409,0.041,0.041,0,0.0618,0.0647,0.0713,0.0774,0.08,0.0851,0.0935,0.0987,0.1013,0.1093,0.1105,0.1078,0.1002,0.0857,0.0706,0.0585,0.042,0.0404,0.0452,0.0433,0.0291,0.025,0.0171,0.014,0.0301,0.0301,0.03,0,0.0637,0.0674,0.076,0.0807,0.0838,0.0916,0.0979,0.1029,0.1092,0.1171,0.1219,0.1175,0.1171,0.0946,0.073,0.0515,0.042,0.0392,0.0371,0.0299,0.0233,0.0207,0.0184,0.0392,0.0392,0.0393,0.0393,0,0.0675,0.0703,0.0759,0.0859,0.0931,0.1024,0.1113,0.1182,0.126,0.1338,0.1421,0.1425,0.1232,0.1058,0.0764,0.0602,0.0371,0.0392,0.0313,0.0304,0.0277,0.023,0.0407,0.0396,0.0396,0.0396,0.0395,0.0395,0.0701,0.0747,0.0823,0.0917,0.1004,0.112,0.1206,0.1316,0.1447,0.1575,0.1566,0.1611,0.1362,0.0983,0.0752,0.0398,0.0387,0.0296,0.025,0.0226,0.0216,0.0395,0.0361,0.0361,0.036,0.036,0.036,0,0.0735,0.0791,0.0878,0.0993,0.1089,0.1134,0.1291,0.1393,0.1561,0.1685,0.1762,0.1701,0.1389,0.1039,0.0573,0.032,0.022,0.0183,0.016,0.0139,0.0298,0.0323,0.0287,0.0287,0.0287,0.0287,0.0287,0.0287,0.0756,0.0837,0.0883,0.104,0.1123,0.1264,0.1359,0.1526,0.1657,0.1834,0.1899,0.1919,0.171,0.0882,0.0359,0.0219,0.0059,0.0022,-0.0068,0.0047,0.0054,0.0061,0.0076,-0.0012,-0.0013,-0.0179,-0.0181,-0.0183]}],[{"header":{"parameterUnit":"m.s-1","parameterCategory":2,"la1":30.2991,"la2":30.254,"lo1":-89.0895,"lo2":-89.0444,"dy":0.0017,"dx":0.0017,"nx":28,"ny":28,"refTime":"2024-05-24T09:00:00:Z","depth":"2","parameterNumber":2,"parameterNumberName":"U-component_of_CURRENTS"},"data":[0,0,0,0,0,0,0,0,0,0,0,0,0,0,0,0,0,0,0,0,0,0,0,0,0,0,0,0,0,0,0,0,0,0,0,0,0,0,0,0,0,0,0,0,0,0,0,0,0,0,0,0,0,0,0,0,0,0,0.2359,0.2359,0,0.2359,0.2359,0.2359,0.235,0.235,0.235,0.235,0.2346,0.2346,0.2346,0,0,0,0,0,0,0,0,0,0,0,0,0,0.2363,0.2363,0.2359,0.2359,0.2359,0.2359,0.2359,0.2359,0.235,0.235,0.235,0.235,0.2346,0.2346,0.2346,0,0,0,0,0,0,0,0,0,0,0,0,0,0.236,0.2363,0.2359,0.2356,0.2356,0.2359,0.2359,0.2359,0.235,0.235,0.235,0.235,0.2346,0.2346,0.2346,0.2348,0,0,0.2346,0.2346,0,0,0,0,0,0,0,0,0.236,0.236,0.2356,0.2356,0.2356,0.2356,0.2359,0.2356,0.235,0.235,0.235,0.2349,0.235,0.235,0.2348,0.2348,0.2348,0.2346,0.2346,0.2346,0.2346,0,0,0,0,0,0,0,0.2361,0.236,0.2357,0.2357,0.2357,0.2359,0.2358,0.2358,0.2349,0.235,0.235,0.2353,0.235,0.2348,0.2348,0.2348,0.2346,0.2346,0.2346,0.2346,0.2401,0.2403,0,0,0,0,0,0,0.2364,0.236,0.2357,0.2357,0.236,0.2359,0.2358,0.2355,0.2349,0.2349,0.2353,0.2353,0.2348,0.2348,0.2347,0.2392,0.2346,0.2346,0.2346,0.24,0.2401,0.2403,0,0,0,0,0,0,0.2364,0.2363,0.2357,0.2361,0.236,0.2359,0.2355,0.2355,0.2365,0.2352,0.2351,0.2365,0.2348,0.2347,0.2362,0.239,0.2346,0.2346,0.2398,0.24,0.2402,0.2454,0,0,0,0,0,0,0.2364,0.2363,0.2367,0.2361,0.236,0.2368,0.2356,0.2355,0.2367,0.2366,0.2362,0.2361,0.2348,0.2363,0.2362,0.2389,0.2346,0.2396,0.2399,0.2402,0.245,0.2458,0.2464,0,0,0,0,0,0.2364,0.2364,0.2366,0.2367,0.2363,0.2369,0.2369,0.2367,0.2368,0.2375,0.2376,0.2362,0.2381,0.2364,0.2363,0.2391,0.2395,0.2398,0.2401,0.2447,0.2456,0.2464,0,0,0,0,0,0,0.2366,0.2364,0.2366,0.2365,0.2373,0.2368,0.2374,0.2378,0.2384,0.2386,0.2375,0.2374,0.24,0.239,0.2372,0.2417,0.2388,0.2391,0.2423,0.2431,0.2438,0.2438,0.2346,0,0,0,0,0,0.237,0.237,0.2373,0.2375,0.238,0.2382,0.2387,0.2388,0.2391,0.2394,0.2393,0.2398,0.2412,0.2417,0.2422,0.2441,0.2444,0.2462,0.2469,0.2474,0.2475,0.2521,0.2532,0.2414,0.2414,0.2414,0,0,0.237,0.2371,0.2371,0.2377,0.238,0.2391,0.2384,0.2396,0.241,0.2393,0.2413,0.2421,0.2424,0.2449,0.246,0.2443,0.2509,0.2479,0.2483,0.2481,0.2526,0.2537,0.2547,0.2416,0.2416,0.2416,0,0,0.2372,0.2375,0.2377,0.2388,0.2401,0.2405,0.2414,0.2421,0.243,0.2452,0.245,0.2477,0.2487,0.2498,0.2506,0.2555,0.2545,0.256,0.2591,0.2636,0.2646,0.2654,0.2667,0.2676,0.2561,0.2561,0.2561,0,0.2377,0.2376,0.2381,0.2392,0.2404,0.2415,0.2429,0.2441,0.2454,0.2472,0.2466,0.2514,0.2513,0.2557,0.2572,0.257,0.2583,0.2558,0.2644,0.2653,0.2661,0.2672,0.2682,0.2564,0.2564,0.2564,0.2563,0,0.238,0.2387,0.2391,0.2408,0.2425,0.2438,0.2459,0.2481,0.2499,0.2515,0.2566,0.2574,0.2605,0.2614,0.2605,0.2667,0.2653,0.265,0.2622,0.2676,0.2684,0.2693,0.2568,0.2567,0.2566,0.2566,0,0,0.2367,0.2389,0.239,0.2398,0.2436,0.2442,0.2485,0.2521,0.2551,0.2582,0.2625,0.2661,0.2677,0.2687,0.2691,0.2722,0.2785,0.271,0.2711,0.2718,0.2868,0.2801,0.2804,0.2803,0.2805,0.2807,0.2848,0,0.2369,0.2383,0.2401,0.2421,0.2431,0.2467,0.2501,0.2542,0.2583,0.2626,0.2666,0.2706,0.2703,0.2723,0.2762,0.2781,0.2814,0.2773,0.2817,0.2818,0.2749,0.2814,0.2571,0.2583,0.2857,0.2858,0.2859,0,0.236,0.2373,0.2391,0.2422,0.2431,0.2452,0.2514,0.2548,0.2624,0.2657,0.2722,0.2754,0.2816,0.2799,0.2879,0.2856,0.2868,0.2877,0.2879,0.2803,0.2768,0.2575,0.2589,0.2875,0.2873,0.2872,0.2871,0,0.2332,0.2359,0.2371,0.2383,0.2428,0.2451,0.2485,0.2561,0.2606,0.2684,0.2734,0.2805,0.2853,0.2895,0.2932,0.2913,0.3005,0.2981,0.293,0.2924,0.2718,0.269,0.3038,0.3038,0.3038,0.3038,0.3037,0,0.2314,0.2319,0.2355,0.236,0.2384,0.243,0.2478,0.2523,0.2613,0.2668,0.2749,0.2808,0.2885,0.2951,0.296,0.2981,0.3039,0.2946,0.2941,0.2728,0.2702,0.2953,0.2942,0.3039,0.3039,0.3038,0.3038,0,0.2271,0.2294,0.2306,0.2352,0.2367,0.2387,0.247,0.2507,0.26,0.268,0.2713,0.2837,0.2912,0.2976,0.304,0.3016,0.3034,0.3023,0.2753,0.2717,0.2908,0.29,0.2962,0.296,0.2959,0.2957,0.2956,0,0.2248,0.2249,0.229,0.23,0.2318,0.2361,0.2391,0.2484,0.2531,0.2687,0.2715,0.284,0.289,0.2969,0.295,0.2955,0.302,0.2721,0.2641,0.2916,0.2906,0.29,0.2895,0.2381,0.2375,0.2371,0.2367,0,0.2207,0.2222,0.2234,0.2258,0.228,0.2307,0.2361,0.2395,0.2505,0.2574,0.2663,0.2723,0.2814,0.2712,0.2736,0.2702,0.2698,0.2626,0.3001,0.2444,0.2373,0.2362,0.2374,0.2325,0.2329,0.2333,0.2335,0.2336,0.2176,0.2173,0.2192,0.22,0.2225,0.2232,0.2223,0.2281,0.2328,0.2391,0.2521,0.252,0.2545,0.246,0.238,0.2315,0.2505,0.2365,0.2377,0.2395,0.2326,0.2258,0.2174,0.2177,0.2179,0.2182,0.2184,0,0.2122,0.2124,0.2133,0.2126,0.2108,0.2158,0.2176,0.2139,0.2128,0.2215,0.226,0.2087,0.2018,0.2046,0.1887,0.1878,0.1839,0.1786,0.1707,0.175,0.1788,0.1687,0.1365,0.1363,0.136,0.1358,0,0,0.2096,0.207,0.2062,0.2001,0.2,0.1941,0.1926,0.1885,0.1901,0.1856,0.1832,0.1978,0.2018,0.169,0.1628,0.1471,0.1602,0.1407,0.2068,0.2022,0.2057,0.213,0.2024,0,0,0,0,0]},{"header":{"parameterUnit":"m.s-1","parameterCategory":2,"la1":30.2991,"la2":30.254,"lo1":-89.0895,"lo2":-89.0444,"dy":0.0017,"dx":0.0017,"nx":28,"ny":28,"refTime":"2024-05-24T09:00:00:Z","depth":"2","parameterNumber":3,"parameterNumberName":"V-component_of_CURRENTS"},"data":[0,0,0,0,0,0,0,0,0,0,0,0,0,0,0,0,0,0,0,0,0,0,0,0,0,0,0,0,0,0,0,0,0,0,0,0,0,0,0,0,0,0,0,0,0,0,0,0,0,0,0,0,0,0,0,0,0,0,0.021,0.0209,0,0.0191,0.0191,0.0191,0.0177,0.0177,0.0177,0.0177,0.0143,0.0142,0.0141,0,0,0,0,0,0,0,0,0,0,0,0,0,0.0199,0.02,0.021,0.0209,0.0209,0.0191,0.0191,0.0191,0.0177,0.0177,0.0177,0.0177,0.0143,0.0142,0.0141,0,0,0,0,0,0,0,0,0,0,0,0,0,0.0195,0.02,0.021,0.02,0.0199,0.0191,0.0191,0.0191,0.0177,0.0177,0.0177,0.0177,0.0143,0.0142,0.0141,0.0136,0,0,0.0137,0.0137,0,0,0,0,0,0,0,0,0.0195,0.0195,0.0202,0.0201,0.02,0.0187,0.0175,0.0172,0.0177,0.0185,0.0177,0.0177,0.0156,0.0154,0.0151,0.0135,0.0133,0.0137,0.0136,0.0136,0.0135,0,0,0,0,0,0,0,0.0195,0.0195,0.0202,0.0202,0.02,0.0186,0.0185,0.0174,0.0171,0.0185,0.0184,0.0182,0.0155,0.0152,0.015,0.0133,0.0137,0.0136,0.0135,0.0135,0.0121,0.0122,0,0,0,0,0,0,0.02,0.0196,0.0203,0.0202,0.0197,0.0186,0.0185,0.0191,0.0172,0.0169,0.0182,0.0182,0.0154,0.0151,0.0148,0.016,0.0136,0.0135,0.0134,0.0121,0.0121,0.0122,0,0,0,0,0,0,0.02,0.0201,0.0203,0.0198,0.0197,0.0187,0.0193,0.0191,0.0191,0.017,0.0167,0.0185,0.0154,0.015,0.0145,0.0158,0.0134,0.0133,0.0121,0.0121,0.0122,0.0172,0,0,0,0,0,0,0.02,0.0201,0.0207,0.0199,0.0198,0.0208,0.0193,0.019,0.019,0.0189,0.0172,0.0168,0.0153,0.0147,0.0144,0.0156,0.0132,0.012,0.0121,0.0121,0.017,0.0174,0.0178,0,0,0,0,0,0.02,0.021,0.0208,0.0209,0.0207,0.0208,0.0207,0.0198,0.019,0.0197,0.0183,0.0169,0.0149,0.0147,0.0143,0.0154,0.012,0.0121,0.0121,0.0168,0.0173,0.0178,0,0,0,0,0,0,0.0208,0.021,0.0207,0.0217,0.0217,0.0206,0.021,0.0203,0.0196,0.0195,0.0174,0.0169,0.0169,0.0154,0.0151,0.0152,0.0132,0.0132,0.0169,0.0173,0.0177,0.0195,0.0131,0,0,0,0,0,0.0213,0.0223,0.022,0.0228,0.023,0.0221,0.022,0.0216,0.0208,0.0205,0.0192,0.0178,0.0169,0.0166,0.0153,0.0155,0.0136,0.0159,0.0163,0.0167,0.0178,0.016,0.0164,0.0125,0.0125,0.0125,0,0,0.0218,0.022,0.0225,0.0231,0.0229,0.0241,0.022,0.0225,0.0237,0.0202,0.0211,0.0191,0.0171,0.0173,0.0172,0.0164,0.0166,0.0168,0.0171,0.0181,0.0161,0.0165,0.0168,0.0125,0.0125,0.0125,0,0,0.0235,0.0236,0.0252,0.0256,0.0259,0.0256,0.026,0.0255,0.0256,0.026,0.0237,0.0226,0.0214,0.0203,0.0196,0.0215,0.0186,0.0209,0.0247,0.0229,0.0232,0.0235,0.0209,0.0208,0.0214,0.0214,0.0214,0,0.0241,0.0264,0.0256,0.0273,0.0283,0.0267,0.0289,0.0288,0.0281,0.0287,0.0272,0.0253,0.0231,0.0236,0.0241,0.0226,0.0207,0.0231,0.0235,0.0237,0.0239,0.0211,0.0211,0.0216,0.0216,0.0216,0.0215,0,0.0272,0.0292,0.0302,0.0322,0.0329,0.0346,0.0345,0.0352,0.0348,0.0343,0.0345,0.0314,0.0306,0.0293,0.0273,0.0278,0.0257,0.024,0.0225,0.0246,0.0215,0.0214,0.022,0.0219,0.0218,0.0217,0,0,0.029,0.032,0.0326,0.0349,0.036,0.0373,0.0393,0.0411,0.0432,0.0413,0.0437,0.0407,0.0386,0.0376,0.0345,0.0327,0.0314,0.0294,0.0292,0.0272,0.0269,0.0263,0.0259,0.0298,0.0298,0.0299,0.024,0,0.0322,0.037,0.0374,0.0422,0.0449,0.0446,0.0473,0.0482,0.0481,0.0496,0.0464,0.0469,0.042,0.0419,0.0392,0.0339,0.0313,0.0331,0.0248,0.0246,0.0241,0.0259,0.0275,0.0226,0.0238,0.0238,0.0237,0,0.0357,0.0388,0.0442,0.0488,0.0501,0.0523,0.0565,0.0587,0.0595,0.0595,0.0584,0.0556,0.0532,0.0486,0.0406,0.042,0.0352,0.0302,0.0298,0.0277,0.0237,0.0207,0.0222,0.0234,0.0234,0.0235,0.0235,0,0.0386,0.0437,0.0486,0.0501,0.0547,0.0573,0.0598,0.0616,0.0653,0.0659,0.0683,0.0634,0.063,0.0541,0.0437,0.0422,0.0344,0.0309,0.0235,0.0232,0.0224,0.0221,0.025,0.025,0.025,0.025,0.0251,0,0.0424,0.0463,0.0506,0.0534,0.0604,0.0615,0.0684,0.0699,0.0734,0.0792,0.074,0.077,0.0645,0.0586,0.0469,0.0356,0.0367,0.0249,0.0223,0.024,0.024,0.0231,0.0229,0.0248,0.0249,0.0249,0.0249,0,0.045,0.0476,0.0537,0.0594,0.062,0.067,0.075,0.0798,0.0823,0.0896,0.0908,0.0876,0.0804,0.0668,0.0527,0.0414,0.0294,0.0247,0.0272,0.0251,0.0179,0.0181,0.0155,0.0155,0.0154,0.0154,0.0153,0,0.0468,0.0503,0.0584,0.063,0.0659,0.0736,0.0797,0.0843,0.09,0.097,0.1013,0.097,0.0957,0.0746,0.0545,0.0347,0.0306,0.0215,0.0189,0.0196,0.0173,0.0175,0.0178,0.0186,0.0186,0.0186,0.0186,0,0.0504,0.0531,0.0584,0.0681,0.0751,0.0839,0.0925,0.0987,0.1059,0.1127,0.1195,0.1191,0.1009,0.0823,0.0553,0.0408,0.0247,0.0208,0.0217,0.0215,0.0222,0.0201,0.0202,0.0186,0.0186,0.0186,0.0186,0.0186,0.0531,0.0574,0.0646,0.0738,0.0824,0.0932,0.1012,0.111,0.1227,0.1332,0.132,0.1317,0.1098,0.0764,0.0519,0.0253,0.027,0.0156,0.0157,0.0158,0.0179,0.0186,0.0146,0.0146,0.0146,0.0146,0.0146,0,0.0566,0.0617,0.07,0.081,0.0903,0.095,0.1094,0.1178,0.1324,0.1412,0.147,0.126,0.1056,0.0789,0.0417,0.0194,0.0163,0.0095,0.0113,0.0116,0.0118,0.0137,0.0092,0.0091,0.009,0.0089,0,0,0.0586,0.0662,0.0704,0.0855,0.0938,0.1072,0.116,0.1293,0.1387,0.1476,0.1478,0.1452,0.1146,0.0856,0.0551,0.0328,0.0266,0.0268,0.0339,0.0401,0.0406,0.0184,0.0221,0,0,0,0,0]}],[{"header":{"parameterUnit":"m.s-1","parameterCategory":2,"la1":30.2991,"la2":30.254,"lo1":-89.0895,"lo2":-89.0444,"dy":0.0017,"dx":0.0017,"nx":28,"ny":28,"refTime":"2024-05-24T09:00:00:Z","depth":"4","parameterNumber":2,"parameterNumberName":"U-component_of_CURRENTS"},"data":[0,0,0,0,0,0,0,0,0,0,0,0,0,0,0,0,0,0,0,0,0,0,0,0,0,0,0,0,0,0,0,0,0,0,0,0,0,0,0,0,0,0,0,0,0,0,0,0,0,0,0,0,0,0,0,0,0,0,0.1491,0.1491,0,0.1524,0.1524,0.1524,0.1562,0.1563,0.1563,0.1564,0.1617,0.1617,0.1618,0,0,0,0,0,0,0,0,0,0,0,0,0,0.1458,0.1458,0.1491,0.1491,0.1492,0.1523,0.1524,0.1524,0.1562,0.1563,0.1564,0.1564,0.1616,0.1617,0.1618,0,0,0,0,0,0,0,0,0,0,0,0,0,0.1478,0.1458,0.1491,0.1516,0.1519,0.1523,0.1524,0.1524,0.1562,0.1563,0.1564,0.1565,0.1616,0.1617,0.1618,0.1601,0,0,0.1621,0.1622,0,0,0,0,0,0,0,0,0.1476,0.1478,0.1512,0.1514,0.1517,0.1542,0.1532,0.1552,0.1561,0.1543,0.1564,0.1565,0.1594,0.1597,0.1597,0.1604,0.1606,0.1621,0.1622,0.1622,0.1623,0,0,0,0,0,0,0,0.1475,0.1477,0.1502,0.1512,0.1516,0.1525,0.1529,0.1535,0.156,0.1545,0.1548,0.1555,0.1596,0.1596,0.1599,0.1607,0.1621,0.1622,0.1623,0.1623,0.1704,0.1705,0,0,0,0,0,0,0.1474,0.1476,0.1501,0.1503,0.1502,0.1525,0.1529,0.1531,0.156,0.1566,0.1554,0.1556,0.1594,0.1598,0.1601,0.1673,0.1622,0.1623,0.1624,0.1703,0.1704,0.1706,0,0,0,0,0,0,0.1473,0.1476,0.1499,0.1492,0.1496,0.1525,0.1526,0.1531,0.1567,0.1567,0.1573,0.1589,0.1595,0.1599,0.1637,0.1672,0.1624,0.1625,0.1701,0.1703,0.1705,0.1758,0,0,0,0,0,0,0.1472,0.1475,0.1493,0.1492,0.1497,0.1523,0.1525,0.1531,0.1568,0.1573,0.1598,0.1602,0.1596,0.1636,0.1638,0.1672,0.1626,0.1699,0.1702,0.1704,0.1755,0.1762,0.1769,0,0,0,0,0,0.147,0.1481,0.1493,0.1497,0.1514,0.1524,0.1528,0.155,0.1569,0.1586,0.1608,0.1603,0.1656,0.1637,0.164,0.1675,0.1697,0.1701,0.1704,0.1752,0.1761,0.1769,0,0,0,0,0,0,0.1478,0.1486,0.1499,0.1514,0.1531,0.1532,0.1554,0.1569,0.1599,0.1616,0.1617,0.1623,0.167,0.1665,0.1645,0.1708,0.1678,0.1682,0.1713,0.1722,0.1729,0.1729,0.1626,0,0,0,0,0,0.1486,0.15,0.1509,0.1526,0.1537,0.1553,0.1568,0.1584,0.1601,0.1618,0.1636,0.1658,0.1678,0.1696,0.1709,0.174,0.1743,0.1766,0.1773,0.1779,0.1782,0.1826,0.1837,0.1717,0.1717,0.1717,0,0,0.1495,0.1503,0.1513,0.153,0.1546,0.1562,0.1566,0.1596,0.162,0.1617,0.1668,0.1684,0.1693,0.173,0.1751,0.1735,0.1815,0.1784,0.1789,0.1788,0.1831,0.1842,0.1853,0.172,0.1719,0.1719,0,0,0.1506,0.1527,0.1539,0.1555,0.1585,0.1593,0.161,0.1633,0.1659,0.1699,0.1708,0.1747,0.1777,0.1789,0.1798,0.1852,0.185,0.1865,0.1901,0.1944,0.1954,0.1963,0.1978,0.1988,0.1868,0.1869,0.1869,0,0.1522,0.1532,0.1547,0.1563,0.1583,0.1611,0.1631,0.1654,0.1691,0.1718,0.1727,0.1794,0.1803,0.1847,0.1867,0.1868,0.1885,0.1867,0.1953,0.1962,0.197,0.1983,0.1993,0.1872,0.1871,0.1871,0.1871,0,0.1529,0.1553,0.1564,0.1592,0.1617,0.1641,0.167,0.1709,0.1749,0.1773,0.1841,0.1858,0.1901,0.1912,0.1906,0.1972,0.1963,0.1956,0.193,0.1985,0.1995,0.2005,0.1876,0.1875,0.1874,0.1873,0,0,0.1521,0.1561,0.1569,0.1587,0.1637,0.1649,0.1704,0.1751,0.1793,0.1846,0.1901,0.1946,0.1974,0.1986,0.1994,0.2027,0.2096,0.2023,0.2024,0.2034,0.2183,0.2032,0.2027,0.2114,0.2116,0.2118,0.2165,0,0.1526,0.1554,0.1579,0.1618,0.1634,0.1684,0.1725,0.1779,0.1834,0.1894,0.1941,0.1996,0.1997,0.2029,0.2068,0.2092,0.2125,0.2083,0.213,0.2131,0.1988,0.2035,0.2125,0.2172,0.2174,0.2175,0.2177,0,0.1517,0.1539,0.1575,0.1626,0.164,0.1676,0.1756,0.1799,0.189,0.1934,0.2011,0.205,0.212,0.2108,0.219,0.2169,0.2186,0.2194,0.2196,0.2042,0.1998,0.2107,0.2194,0.2192,0.2191,0.219,0.2189,0,0.148,0.1532,0.1562,0.1581,0.1645,0.1687,0.1735,0.1823,0.1873,0.1976,0.2031,0.2111,0.217,0.2212,0.225,0.2235,0.2323,0.23,0.2176,0.2165,0.2264,0.2254,0.2357,0.2357,0.2357,0.2356,0.2356,0,0.1453,0.1479,0.1553,0.1567,0.1615,0.1675,0.1745,0.1804,0.1904,0.1961,0.2059,0.211,0.2206,0.2268,0.2278,0.2255,0.2355,0.2185,0.2171,0.2284,0.2276,0.227,0.2259,0.2358,0.2358,0.2357,0.2357,0,0.1398,0.1447,0.1484,0.1565,0.1597,0.1636,0.1747,0.1789,0.19,0.1982,0.2023,0.2144,0.221,0.2278,0.2343,0.2279,0.2274,0.2242,0.2356,0.2348,0.2077,0.2069,0.2093,0.2088,0.2084,0.208,0.2077,0,0.1367,0.1382,0.1475,0.1502,0.1546,0.1619,0.1663,0.1775,0.1819,0.1978,0.1998,0.2121,0.2182,0.2152,0.2228,0.2232,0.2208,0.2183,0.2122,0.2067,0.2053,0.2051,0.2049,0.2071,0.207,0.2069,0.2068,0,0.1306,0.1355,0.1388,0.1448,0.15,0.1544,0.1619,0.1641,0.1763,0.1887,0.1922,0.1956,0.2023,0.2055,0.2081,0.208,0.2182,0.214,0.2147,0.2089,0.2041,0.203,0.2033,0.2053,0.2055,0.2057,0.2057,0,0.127,0.1277,0.1331,0.137,0.1433,0.1443,0.1494,0.1535,0.1592,0.1758,0.1765,0.1887,0.2001,0.1977,0.2,0.1987,0.1947,0.1866,0.1887,0.1904,0.1819,0.1729,0.1636,0,0,0,0,0,0.122,0.1214,0.1245,0.1269,0.1327,0.1364,0.1447,0.1499,0.1622,0.1598,0.1674,0.1722,0.1752,0.1814,0.1762,0.1915,0.1958,0.1844,0.1877,0.1974,0.1991,0.1907,0,0,0,0,0,0,0.1183,0.121,0.1209,0.1179,0.1183,0.1225,0.1276,0.1359,0.1346,0.1482,0.1508,0.161,0.1669,0.1769,0.173,0.1747,0.1727,0.1921,0.1916,0.1965,0.198,0.1993,0.1913,0,0,0,0,0]},{"header":{"parameterUnit":"m.s-1","parameterCategory":2,"la1":30.2991,"la2":30.254,"lo1":-89.0895,"lo2":-89.0444,"dy":0.0017,"dx":0.0017,"nx":28,"ny":28,"refTime":"2024-05-24T09:00:00:Z","depth":"4","parameterNumber":3,"parameterNumberName":"V-component_of_CURRENTS"},"data":[0,0,0,0,0,0,0,0,0,0,0,0,0,0,0,0,0,0,0,0,0,0,0,0,0,0,0,0,0,0,0,0,0,0,0,0,0,0,0,0,0,0,0,0,0,0,0,0,0,0,0,0,0,0,0,0,0,0,0.0105,0.0105,0,0.0093,0.0093,0.0093,0.0084,0.0084,0.0084,0.0084,0.0059,0.0059,0.0058,0,0,0,0,0,0,0,0,0,0,0,0,0,0.0098,0.0098,0.0105,0.0105,0.0105,0.0093,0.0093,0.0093,0.0084,0.0084,0.0084,0.0084,0.0059,0.0059,0.0058,0,0,0,0,0,0,0,0,0,0,0,0,0,0.0095,0.0098,0.0105,0.0099,0.0098,0.0093,0.0093,0.0093,0.0084,0.0084,0.0084,0.0084,0.006,0.0059,0.0058,0.0055,0,0,0.0055,0.0055,0,0,0,0,0,0,0,0,0.0096,0.0096,0.01,0.0099,0.0099,0.009,0.0081,0.0079,0.0084,0.009,0.0084,0.0084,0.0068,0.0067,0.0065,0.0054,0.0053,0.0055,0.0054,0.0054,0.0054,0,0,0,0,0,0,0,0.0096,0.0096,0.01,0.01,0.0099,0.0089,0.0089,0.0081,0.008,0.0089,0.0089,0.0087,0.0068,0.0066,0.0064,0.0052,0.0055,0.0054,0.0054,0.0053,0.0046,0.0046,0,0,0,0,0,0,0.0098,0.0096,0.0101,0.01,0.0097,0.009,0.0089,0.0093,0.008,0.0078,0.0087,0.0087,0.0067,0.0065,0.0063,0.0073,0.0054,0.0053,0.0053,0.0046,0.0046,0.0046,0,0,0,0,0,0,0.0098,0.0099,0.0101,0.0097,0.0097,0.009,0.0094,0.0093,0.0094,0.0079,0.0076,0.009,0.0067,0.0065,0.0062,0.0071,0.0053,0.0052,0.0045,0.0046,0.0046,0.0083,0,0,0,0,0,0,0.0098,0.0099,0.0104,0.0098,0.0097,0.0105,0.0094,0.0093,0.0093,0.0093,0.0081,0.0078,0.0067,0.0064,0.0061,0.007,0.0051,0.0045,0.0045,0.0046,0.0082,0.0085,0.0088,0,0,0,0,0,0.0098,0.0106,0.0105,0.0105,0.0104,0.0106,0.0105,0.0099,0.0094,0.0099,0.009,0.0078,0.0066,0.0063,0.0061,0.0069,0.0045,0.0045,0.0046,0.008,0.0084,0.0088,0,0,0,0,0,0,0.0105,0.0106,0.0104,0.0112,0.0112,0.0104,0.0108,0.0103,0.01,0.0099,0.0083,0.008,0.0081,0.007,0.0067,0.0068,0.0053,0.0053,0.008,0.0084,0.0087,0.0101,0.0051,0,0,0,0,0,0.0109,0.0116,0.0114,0.0121,0.0122,0.0116,0.0116,0.0113,0.0108,0.0107,0.0097,0.0087,0.0081,0.0079,0.0071,0.0072,0.0058,0.0075,0.0078,0.0081,0.0091,0.0074,0.0077,0.0049,0.0049,0.0049,0,0,0.0113,0.0114,0.0118,0.0123,0.0122,0.0132,0.0116,0.012,0.013,0.0104,0.0113,0.0098,0.0084,0.0086,0.0085,0.0078,0.0081,0.0082,0.0085,0.0093,0.0075,0.0078,0.0081,0.0049,0.0049,0.0049,0,0,0.0126,0.0127,0.0139,0.0143,0.0146,0.0144,0.0147,0.0144,0.0146,0.0151,0.0134,0.0126,0.0118,0.0109,0.0104,0.0119,0.0097,0.0115,0.0144,0.0128,0.013,0.0132,0.0116,0.0116,0.0117,0.0117,0.0117,0,0.0131,0.0148,0.0142,0.0156,0.0164,0.0152,0.017,0.0171,0.0167,0.0172,0.0161,0.0149,0.0132,0.0135,0.0139,0.0127,0.0114,0.0131,0.0132,0.0134,0.0135,0.0118,0.0118,0.0119,0.0119,0.0119,0.0119,0,0.0154,0.017,0.0177,0.0194,0.02,0.0213,0.0214,0.0222,0.022,0.0216,0.022,0.0196,0.0191,0.018,0.0165,0.0167,0.0153,0.0137,0.0124,0.014,0.0121,0.012,0.0122,0.0121,0.0121,0.012,0,0,0.0165,0.019,0.0195,0.0214,0.0224,0.0235,0.0253,0.0268,0.0285,0.0273,0.0292,0.0269,0.0253,0.0246,0.0221,0.0204,0.0194,0.0178,0.0176,0.0165,0.016,0.0144,0.0141,0.0177,0.0177,0.0177,0.0142,0,0.0189,0.0226,0.0231,0.027,0.029,0.0292,0.0316,0.0325,0.0325,0.0338,0.0314,0.032,0.028,0.028,0.0256,0.0213,0.0194,0.0206,0.0144,0.0142,0.0128,0.014,0.0178,0.0141,0.0141,0.0141,0.0141,0,0.0213,0.0238,0.028,0.0321,0.0331,0.0352,0.0388,0.0408,0.0417,0.0418,0.041,0.0388,0.0369,0.0332,0.0268,0.0277,0.0226,0.0185,0.0183,0.0157,0.0125,0.0121,0.0138,0.0139,0.0139,0.0139,0.0139,0,0.023,0.0274,0.0313,0.0326,0.0366,0.0391,0.0415,0.0432,0.0464,0.0471,0.049,0.0451,0.0449,0.0377,0.0292,0.0282,0.0217,0.0191,0.0128,0.0126,0.0134,0.0132,0.0147,0.0147,0.0147,0.0147,0.0147,0,0.0255,0.0287,0.0328,0.035,0.041,0.0424,0.0483,0.0499,0.0531,0.0576,0.0538,0.0556,0.0461,0.041,0.0318,0.0224,0.0236,0.0139,0.0118,0.0149,0.015,0.0132,0.0131,0.0146,0.0146,0.0146,0.0147,0,0.0268,0.0293,0.0343,0.0395,0.0421,0.0464,0.0538,0.0578,0.0602,0.066,0.067,0.0642,0.0578,0.0472,0.0358,0.027,0.0171,0.0133,0.0182,0.0163,0.0083,0.0084,0.0062,0.0061,0.0061,0.006,0.006,0,0.0277,0.0304,0.0378,0.0418,0.0446,0.0514,0.0569,0.0614,0.0658,0.0712,0.0743,0.0706,0.0669,0.0505,0.0378,0.0205,0.0172,0.0113,0.0088,0.0094,0.0076,0.0078,0.008,0.0059,0.0058,0.0058,0.0058,0,0.0295,0.0323,0.0366,0.045,0.0514,0.059,0.0664,0.0703,0.0764,0.0787,0.0806,0.0729,0.0658,0.0514,0.0382,0.0253,0.0145,0.0105,0.0105,0.0082,0.009,0.0072,0.0075,0.0056,0.0056,0.0056,0.0056,0,0.0312,0.0344,0.0405,0.0482,0.0563,0.0644,0.0682,0.0742,0.0792,0.0842,0.0844,0.0771,0.0726,0.054,0.0418,0.029,0.0246,0.0182,0.0177,0.0178,0.0212,0.0239,0.0241,0,0,0,0,0,0.0326,0.0366,0.0433,0.0518,0.0599,0.0651,0.0742,0.0773,0.0831,0.0849,0.0849,0.0783,0.0618,0.055,0.0421,0.0386,0.0212,0.0226,0.0133,0.0043,0.0046,0.0063,0,0,0,0,0,0,0.0336,0.0396,0.0431,0.0537,0.0597,0.0694,0.0754,0.0793,0.0801,0.0833,0.0751,0.0725,0.0565,0.0692,0.0411,0.0375,0.029,0.0156,0.0152,0.0042,0.0044,0.0046,0.0065,0,0,0,0,0]}]]